Gustavus, AK

3:20 PM AKDT on April 20, 2018 (GMT -0800)
Gustavus

Weather History for PAGS - January, 2013

Change the Weather History Date:

Friday, January 25, 2013

  Actual Average Record
Temperature  
Mean Temperature 36 °F -  
Max Temperature 39 °F 32 °F 45 °F (1985)
Min Temperature 33 °F 17 °F -9 °F (1952)
Degree Days  
Heating Degree Days 29    
Moisture  
Dew Point 33 °F    
Average Humidity 87    
Maximum Humidity 93    
Minimum Humidity 81    
Precipitation  
Precipitation 0.00 in - - ()
Sea Level Pressure  
Sea Level Pressure 29.41 in    
Wind  
Wind Speed 2 mph (NNW)    
Max Wind Speed 7 mph    
Max Gust Speed -    
Visibility 9 miles    
Events      
Averages and records for this station are not official NWS values.
T = Trace of Precipitation, MM = Missing Value Source: NWS Daily Summary

Daily Weather History Graph

Daily Weather History Graph

Search for Another Location

Airport or City:

Astronomy

Jan. 25, 2013 Rise Set
Actual Time 8:21 AM AKST 4:09 PM AKST
Civil Twilight 7:35 AM AKST 4:55 PM AKST
Nautical Twilight 6:46 AM AKST 5:45 PM AKST
Astronomical Twilight 5:59 AM AKST 6:32 PM AKST
Moon 3:15 PM AKST (1/25) 7:07 AM AKST (1/25)
Length of Visible Light 9h 20m
Length of Day
7h 47m
Waxing Gibbous, 98% of the Moon is Illuminated
Jan 25
Waxing Gibbous
Jan 26
Full
Feb 3
Last Quarter
Feb 9
New
Feb 17
First Quarter

Hourly Weather History & Observations

Time (AKST) Temp. Windchill Dew Point Humidity Pressure Visibility Wind Dir Wind Speed Gust Speed Precip Events Conditions
12:16 AM 33.8 °F 30.8 °F 30.2 °F 87% 29.34 in 10.0 mi NE 3.5 mph - N/A   Mostly Cloudy
12:36 AM 33.8 °F - 28.4 °F 81% 29.34 in 10.0 mi Calm Calm - N/A   Overcast
12:56 AM 33.8 °F - 28.4 °F 81% 29.33 in 10.0 mi Calm Calm - N/A   Overcast
1:16 AM 33.8 °F 29.6 °F 28.4 °F 81% 29.33 in 10.0 mi NNW 4.6 mph - N/A   Overcast
1:36 AM 33.8 °F - 28.4 °F 81% 29.32 in 10.0 mi Calm Calm - N/A   Overcast
1:56 AM 33.8 °F - 28.4 °F 81% 29.32 in 10.0 mi Calm Calm - N/A   Overcast
2:16 AM 33.8 °F - 28.4 °F 81% 29.32 in 10.0 mi Calm Calm - N/A   Overcast
2:56 AM 33.8 °F - 28.4 °F 81% 29.32 in 10.0 mi Calm Calm - N/A   Overcast
3:36 AM 33.8 °F - 28.4 °F 81% 29.33 in 10.0 mi Calm Calm - N/A   Overcast
3:56 AM 33.8 °F - 28.4 °F 81% 29.33 in 10.0 mi Calm Calm - N/A   Overcast
4:16 AM 33.8 °F - 28.4 °F 81% 29.33 in 10.0 mi Calm Calm - N/A   Overcast
4:36 AM 33.8 °F - 28.4 °F 81% 29.33 in 10.0 mi Calm Calm - N/A   Overcast
4:56 AM 33.8 °F 30.8 °F 28.4 °F 81% 29.33 in 10.0 mi North 3.5 mph - N/A   Overcast
5:16 AM 33.8 °F - 28.4 °F 81% 29.33 in 10.0 mi Calm Calm - N/A   Mostly Cloudy
5:36 AM 33.8 °F 30.8 °F 28.4 °F 81% 29.34 in 10.0 mi North 3.5 mph - N/A   Mostly Cloudy
5:56 AM 33.8 °F - 30.2 °F 87% 29.34 in 10.0 mi Calm Calm - N/A   Overcast
6:16 AM 33.8 °F - 30.2 °F 87% 29.35 in 10.0 mi Calm Calm - N/A   Overcast
6:36 AM 33.8 °F - 30.2 °F 87% 29.35 in 10.0 mi Calm Calm - N/A   Overcast
6:56 AM 33.8 °F 30.8 °F 30.2 °F 87% 29.36 in 10.0 mi North 3.5 mph - N/A   Overcast
7:16 AM 33.8 °F 29.6 °F 30.2 °F 87% 29.36 in 10.0 mi NW 4.6 mph - N/A   Overcast
7:36 AM 33.8 °F 29.6 °F 30.2 °F 87% 29.36 in 10.0 mi NNW 4.6 mph - N/A   Overcast
7:56 AM 33.8 °F - 30.2 °F 87% 29.37 in 10.0 mi Calm Calm - N/A   Overcast
8:16 AM 35.6 °F 32.8 °F 32.0 °F 87% 29.38 in 10.0 mi NW 3.5 mph - N/A   Overcast
8:36 AM 35.6 °F 30.7 °F 30.2 °F 81% 29.38 in 10.0 mi NNW 5.8 mph - N/A   Overcast
8:56 AM 35.6 °F - 30.2 °F 81% 29.39 in 10.0 mi Calm Calm - N/A   Overcast
9:16 AM 35.6 °F - 30.2 °F 81% 29.39 in 10.0 mi Calm Calm - N/A   Overcast
9:36 AM 35.6 °F 32.8 °F 30.2 °F 81% 29.40 in 10.0 mi NNW 3.5 mph - N/A   Overcast
10:16 AM 35.6 °F - 32.0 °F 87% 29.40 in 10.0 mi Calm Calm - N/A   Mostly Cloudy
10:36 AM 35.6 °F 30.7 °F 32.0 °F 87% 29.40 in 10.0 mi NNW 5.8 mph - N/A   Overcast
10:56 AM 37.4 °F 32.1 °F 33.8 °F 87% 29.41 in 10.0 mi NNW 6.9 mph - N/A   Overcast
11:16 AM 37.4 °F 32.1 °F 33.8 °F 87% 29.41 in 10.0 mi NNW 6.9 mph - N/A   Overcast
11:36 AM 37.4 °F 32.8 °F 33.8 °F 87% 29.41 in 10.0 mi NW 5.8 mph - N/A   Mostly Cloudy
11:56 AM 37.4 °F - 33.8 °F 87% 29.42 in 10.0 mi Calm Calm - N/A   Overcast
12:16 PM 37.4 °F - 33.8 °F 87% 29.42 in 10.0 mi Calm Calm - N/A   Overcast
12:36 PM 37.4 °F - 33.8 °F 87% 29.42 in 10.0 mi Calm Calm - N/A   Overcast
12:56 PM 37.4 °F - 35.6 °F 93% 29.42 in 10.0 mi Calm Calm - N/A   Overcast
1:16 PM 37.4 °F - 35.6 °F 93% 29.42 in 10.0 mi Calm Calm - N/A   Overcast
1:36 PM 37.4 °F 33.8 °F 35.6 °F 93% 29.42 in 10.0 mi NNW 4.6 mph - N/A   Overcast
1:56 PM 37.4 °F 34.9 °F 35.6 °F 93% 29.43 in 10.0 mi NNW 3.5 mph - N/A   Overcast
2:16 PM 39.2 °F - 35.6 °F 87% 29.43 in 10.0 mi Calm Calm - N/A   Overcast
2:36 PM 37.4 °F 34.9 °F 35.6 °F 93% 29.43 in 10.0 mi NW 3.5 mph - N/A   Overcast
2:56 PM 37.4 °F 33.8 °F 33.8 °F 87% 29.43 in 10.0 mi NNW 4.6 mph - N/A   Overcast
3:16 PM 39.2 °F 37.0 °F 35.6 °F 87% 29.44 in 10.0 mi NW 3.5 mph - N/A   Overcast
3:36 PM 39.2 °F - 35.6 °F 87% 29.44 in 10.0 mi Calm Calm - N/A   Overcast
3:56 PM 37.4 °F - 35.6 °F 93% 29.44 in 10.0 mi Calm Calm - N/A   Overcast
4:16 PM 37.4 °F - 35.6 °F 93% 29.44 in 10.0 mi Calm Calm - N/A   Overcast
4:36 PM 37.4 °F - 33.8 °F 87% 29.45 in 6.0 mi Calm Calm - N/A   Overcast
4:56 PM 37.4 °F - 33.8 °F 87% 29.45 in 1.2 mi Calm Calm - N/A   Overcast
5:16 PM 37.4 °F - 33.8 °F 87% 29.46 in 1.2 mi Calm Calm - N/A   Overcast
5:36 PM 37.4 °F - 33.8 °F 87% 29.46 in 3.0 mi Calm Calm - N/A   Overcast
5:56 PM 35.6 °F - 33.8 °F 93% 29.46 in 3.0 mi Calm Calm - N/A   Overcast
6:16 PM 35.6 °F - 33.8 °F 93% 29.46 in 4.0 mi Calm Calm - N/A   Overcast
6:36 PM 35.6 °F - 33.8 °F 93% 29.47 in 6.0 mi Calm Calm - N/A   Overcast
6:56 PM 35.6 °F - 33.8 °F 93% 29.47 in 3.0 mi Calm Calm - N/A   Overcast
7:16 PM 35.6 °F - 33.8 °F 93% 29.47 in 5.0 mi Calm Calm - N/A   Overcast
7:36 PM 35.6 °F 30.7 °F 33.8 °F 93% 29.47 in 8.0 mi ESE 5.8 mph - N/A   Overcast
7:56 PM 37.4 °F 32.8 °F 33.8 °F 87% 29.48 in 10.0 mi SE 5.8 mph - N/A   Overcast
8:16 PM 37.4 °F 33.8 °F 35.6 °F 93% 29.48 in 10.0 mi SE 4.6 mph - N/A   Overcast
8:36 PM 39.2 °F 35.9 °F 35.6 °F 87% 29.49 in 10.0 mi SSE 4.6 mph - N/A   Overcast
8:56 PM 39.2 °F 37.0 °F 35.6 °F 87% 29.49 in 10.0 mi SSE 3.5 mph - N/A   Overcast
9:16 PM 37.4 °F 34.9 °F 33.8 °F 87% 29.50 in 9.0 mi SW 3.5 mph - N/A   Overcast
9:36 PM 39.2 °F - 35.6 °F 87% 29.50 in 4.0 mi Calm Calm - N/A   Overcast
9:56 PM 39.2 °F 37.0 °F 35.6 °F 87% 29.51 in 7.0 mi South 3.5 mph - N/A   Overcast
10:16 PM 39.2 °F 35.0 °F 35.6 °F 87% 29.50 in 5.0 mi South 5.8 mph - N/A   Overcast
10:36 PM 39.2 °F 35.9 °F 35.6 °F 87% 29.51 in 9.0 mi South 4.6 mph - N/A   Overcast
10:56 PM 39.2 °F 35.9 °F 35.6 °F 87% 29.51 in 10.0 mi South 4.6 mph - N/A   Overcast
11:16 PM 39.2 °F - 35.6 °F 87% 29.52 in 10.0 mi Calm Calm - N/A   Overcast
11:36 PM 37.4 °F - 35.6 °F 93% 29.52 in 10.0 mi Calm Calm - N/A   Overcast
11:56 PM 39.2 °F - 35.6 °F 87% 29.52 in 10.0 mi Calm Calm - N/A   Overcast